Winfield, KS

8:08 AM CST on December 09, 2019 (GMT -0600)
Strother

Weather History for KWLD - November, 2019

Change the Weather History Date:

Friday, November 15, 2019

  Actual Average Record
Temperature  
Mean Temperature 40 °F -  
Max Temperature 57 °F 56 °F 75 °F (2016)
Min Temperature 23 °F 36 °F 21 °F (1997)
Degree Days  
Heating Degree Days 25    
Moisture  
Dew Point 26 °F    
Average Humidity 62    
Maximum Humidity 85    
Minimum Humidity 36    
Precipitation  
Precipitation 0.00 in - - ()
Sea Level Pressure  
Sea Level Pressure 30.36 in    
Wind  
Wind Speed 3 mph ()    
Max Wind Speed 13 mph    
Max Gust Speed -    
Visibility 10.0 miles    
Events      
Averages and records for this station are not official NWS values.
T = Trace of Precipitation, MM = Missing Value Source: Averaged Metar Reports

Daily Weather History Graph

Daily Weather History Graph

Search for Another Location

Airport or City:

Astronomy

Nov. 15, 2019 Rise Set
Actual Time 7:06 AM CST 5:18 PM CST
Civil Twilight 6:39 AM CST 5:45 PM CST
Nautical Twilight 6:07 AM CST 6:17 PM CST
Astronomical Twilight 5:36 AM CST 6:48 PM CST
Moon 7:57 PM CST (11/15) 10:02 AM CST (11/15)
Length of Visible Light 11h 06m
Length of Day
10h 11m
Waning Gibbous, 90% of the Moon is Illuminated
Nov 15
Waning Gibbous
Nov 19
Last Quarter
Nov 26
New
Dec 4
First Quarter
Dec 11
Full

Hourly Weather History & Observations

Time (CST) Temp. Windchill Dew Point Humidity Pressure Visibility Wind Dir Wind Speed Gust Speed Precip Events Conditions
12:54 AM 28.0 °F - 21.9 °F 78% 30.43 in 10.0 mi Calm Calm - N/A   Clear
1:54 AM 24.1 °F - 19.0 °F 81% 30.43 in 10.0 mi Calm Calm - N/A   Clear
2:54 AM 24.1 °F - 19.0 °F 81% 30.43 in 10.0 mi Calm Calm - N/A   Clear
3:54 AM 23.0 °F - 18.0 °F 81% 30.42 in 10.0 mi Calm Calm - N/A   Clear
4:54 AM 26.1 °F - 21.0 °F 81% 30.42 in 10.0 mi Calm Calm - N/A   Clear
5:54 AM 25.0 °F - 21.0 °F 85% 30.42 in 10.0 mi Calm Calm - N/A   Clear
6:54 AM 25.0 °F 19.3 °F 21.0 °F 85% 30.42 in 10.0 mi East 4.6 mph - N/A   Clear
7:54 AM 28.0 °F - 23.0 °F 81% 30.43 in 10.0 mi Calm Calm - N/A   Clear
8:54 AM 36.0 °F - 28.9 °F 76% 30.43 in 10.0 mi Calm Calm - N/A   Clear
9:54 AM 46.9 °F - 32.0 °F 56% 30.42 in 10.0 mi SSE 8.1 mph - N/A   Clear
10:54 AM 52.0 °F - 32.0 °F 47% 30.41 in 10.0 mi South 9.2 mph - N/A   Clear
11:54 AM 54.0 °F - 32.0 °F 43% 30.40 in 10.0 mi SSW 9.2 mph - N/A   Clear
12:54 PM 55.9 °F - 30.9 °F 39% 30.37 in 10.0 mi South 9.2 mph - N/A   Clear
1:54 PM 57.0 °F - 30.0 °F 36% 30.32 in 10.0 mi SSE 12.7 mph - N/A   Clear
2:54 PM 57.0 °F - 30.0 °F 36% 30.30 in 10.0 mi South 8.1 mph - N/A   Clear
3:54 PM 55.9 °F - 30.0 °F 37% 30.28 in 10.0 mi SSE 10.4 mph - N/A   Clear
5:54 PM 48.0 °F - 28.9 °F 48% 30.28 in 10.0 mi SE 5.8 mph - N/A   Clear
6:54 PM 45.0 °F 40.6 °F 28.9 °F 53% 30.29 in 10.0 mi SE 8.1 mph - N/A   Clear
7:54 PM 43.0 °F 41.3 °F 28.0 °F 56% 30.29 in 10.0 mi ESE 3.5 mph - N/A   Clear
8:54 PM 41.0 °F 37.1 °F 28.0 °F 60% 30.28 in 10.0 mi SE 5.8 mph - N/A   Clear
9:54 PM 41.0 °F 37.1 °F 28.0 °F 60% 30.27 in 10.0 mi ESE 5.8 mph - N/A   Clear
10:54 PM 39.9 °F 35.8 °F 28.0 °F 63% 30.27 in 10.0 mi SE 5.8 mph - N/A   Clear
11:54 PM 39.9 °F 35.8 °F 28.0 °F 63% 30.25 in 10.0 mi SE 5.8 mph - N/A   Clear